Hourly Data Report for September 28, 2017

All times are specified in Local Standard Time (LST). Add 1 hour to adjust for Daylight Saving Time where and when it is observed.

ENNADAI LAKE (AUT)
NUNAVUT

61°07'55.000" N
100°53'02.000" W
353.10 m
2301102
71923
WJC

Download Data

Hourly Data (September 2017)
Hourly Data Report for September 28, 2017
Temp Definition
°C
Dew Point Temp Definition
°C
Rel Hum Definition
%
Wind Dir Definition
10's deg

Wind Spd Definition
km/h
Visibility Definition
km
Stn Press Definition
kPa
Hmdx Definition


Wind Chill Definition


Weather Definition


TIME
00:00 2.0 1.3 95 1 22   97.99     LegendNANA
01:00 2.2 1.0 92 36 25   98.06     LegendNANA
02:00 1.8 0.5 91 36 28   98.13     LegendNANA
03:00 1.2 0.5 95 1 21   98.19     LegendNANA
04:00 -0.2 -0.4 98 1 18   98.23   -5 LegendNANA
05:00 -0.6 -0.7 99 36 18   98.28   -6 LegendNANA
06:00 -0.9 -1.0 99 36 15   98.32   -6 LegendNANA
07:00 -0.7 -0.8 99 2 20   98.35   -6 LegendNANA
08:00 -0.6 -1.1 97 3 21   98.41   -6 LegendNANA
09:00 0.3 -0.2 96 5 13   98.43     LegendNANA
10:00 0.8 -0.8 89 5 14   98.46     LegendNANA
11:00 1.0 -2.3 79 3 13   98.48     LegendNANA
12:00 1.1 -2.6 76 3 10   98.47     LegendNANA
13:00 2.2 -2.5 71 6 6   98.41     LegendNANA
14:00 3.2 -1.4 72 13 9   98.36     LegendNANA
15:00 2.7 -1.2 75 15 11   98.32     LegendNANA
16:00 3.1 -0.1 80 15 16   98.27     LegendNANA
17:00 3.8 -0.2 75 15 16   98.20     LegendNANA
18:00 3.9 0.4 78 17 25   98.09     LegendNANA
19:00 3.4 0.8 83 17 25   98.01     LegendNANA
20:00 3.4 0.6 82 17 33   97.90     LegendNANA
21:00 3.3 0.8 84 17 33   97.83     LegendNANA
22:00 3.2 0.4 82 17 37   97.70     LegendNANA
23:00 3.4 0.7 83 18 38   97.60     LegendNANA

Notes on Data Quality.

Legend

  • E = Estimated
  • M = Missing
  • NA = Not Available
  • ‡ = Partner data that is not subject to review by the National Climate Archives
Date modified: